| time (UTC) | temp C | wind direction | speed KPH | gust KPH | rain 1hr cm | rain 24hr cm | rain mn cm | humidity % | barometer mb |
| 20260902031815 | 13 | 212 | 3.2 | 4.8 | 0.00 | 0.00 | 0.00 | 89 | 1015.0 |
| 20260902031314 | 13 | 211 | 1.6 | 3.2 | 0.00 | 0.00 | 0.00 | 89 | 1015.0 |
| 20260902030815 | 13 | 211 | 1.6 | 4.8 | 0.00 | 0.00 | 0.00 | 89 | 1015.0 |
| 20260902030314 | 13 | 236 | 1.6 | 3.2 | 0.00 | 0.00 | 0.00 | 88 | 1015.0 |
| 20260902025814 | 13 | 236 | 0.0 | 1.6 | 0.00 | 0.00 | 0.00 | 88 | 1015.1 |
| 20260902025315 | 13 | 236 | 0.0 | 3.2 | 0.00 | 0.00 | 0.00 | 88 | 1015.1 |
| 20260902024815 | 13 | 236 | 0.0 | 3.2 | 0.00 | 0.00 | 0.00 | 88 | 1015.3 |
| 20260902024315 | 13 | 236 | 1.6 | 1.6 | 0.00 | 0.00 | 0.00 | 87 | 1015.4 |
| 20260902023814 | 13 | 236 | 3.2 | 4.8 | 0.00 | 0.00 | 0.00 | 87 | 1015.4 |
| 20260902023315 | 13 | 236 | 1.6 | 4.8 | 0.00 | 0.00 | 0.00 | 87 | 1015.4 |
| 20260902022814 | 13 | 271 | 1.6 | 4.8 | 0.00 | 0.00 | 0.00 | 87 | 1015.4 |
| 20260902022314 | 13 | 245 | 1.6 | 4.8 | 0.00 | 0.00 | 0.00 | 87 | 1015.5 |
| 20260902021814 | 14 | 245 | 3.2 | 4.8 | 0.00 | 0.00 | 0.00 | 86 | 1015.5 |
| 20260902021314 | 14 | 263 | 1.6 | 4.8 | 0.00 | 0.00 | 0.00 | 86 | 1015.5 |
| 20260902020815 | 14 | 257 | 3.2 | 9.7 | 0.00 | 0.00 | 0.00 | 85 | 1015.6 |
| 20260902020314 | 14 | 212 | 4.8 | 11.3 | 0.00 | 0.00 | 0.00 | 85 | 1015.7 |
| 20260902015815 | 14 | 220 | 6.4 | 9.7 | 0.00 | 0.00 | 0.00 | 85 | 1015.7 |
| 20260902015314 | 14 | 197 | 3.2 | 4.8 | 0.00 | 0.00 | 0.00 | 85 | 1015.6 |
| 20260902014315 | 14 | 207 | 3.2 | 4.8 | 0.00 | 0.00 | 0.00 | 85 | 1015.6 |
| 20260902013814 | 15 | 206 | 3.2 | 4.8 | 0.00 | 0.00 | 0.00 | 85 | 1015.6 |
| 20260902013314 | 15 | 206 | 0.0 | 3.2 | 0.00 | 0.00 | 0.00 | 85 | 1015.7 |
| 20260902012814 | 14 | 206 | 0.0 | 3.2 | 0.00 | 0.00 | 0.00 | 85 | 1015.7 |
| 20260902012314 | 14 | 206 | 1.6 | 4.8 | 0.00 | 0.00 | 0.00 | 85 | 1015.6 |
| 20260902011815 | 14 | 153 | 4.8 | 12.9 | 0.00 | 0.00 | 0.00 | 85 | 1015.7 |
| 20260902011316 | 14 | 21 | 0.0 | 3.2 | 0.00 | 0.00 | 0.00 | 85 | 1015.7 |
| 20260902010815 | 14 | 27 | 3.2 | 4.8 | 0.00 | 0.00 | 0.00 | 84 | 1015.7 |
| 20260902010314 | 14 | 106 | 1.6 | 3.2 | 0.00 | 0.00 | 0.00 | 84 | 1015.7 |
| 20260902005816 | 15 | 213 | 3.2 | 9.7 | 0.00 | 0.00 | 0.00 | 84 | 1015.6 |
| 20260902004815 | 15 | 225 | 0.0 | 3.2 | 0.00 | 0.00 | 0.00 | 83 | 1015.6 |
| 20260902004315 | 15 | 225 | 1.6 | 3.2 | 0.00 | 0.00 | 0.00 | 83 | 1015.8 |
| 20260902003814 | 15 | 225 | 0.0 | 3.2 | 0.00 | 0.00 | 0.00 | 83 | 1015.7 |
| 20260902003314 | 15 | 225 | 4.8 | 8.0 | 0.00 | 0.00 | 0.00 | 83 | 1015.8 |
| 20260902002815 | 15 | 240 | 3.2 | 8.0 | 0.00 | 0.00 | 0.00 | 83 | 1015.8 |
| 20260902001814 | 15 | 221 | 4.8 | 35.4 | 0.00 | 0.00 | 0.00 | 83 | 1015.8 |
| 20260902000815 | 15 | 215 | 4.8 | 9.7 | 0.00 | 0.00 | 0.00 | 83 | 1015.9 |
| 20260902000314 | 15 | 263 | 3.2 | 8.0 | 0.00 | 0.00 | 0.00 | 83 | 1015.9 |
| 20260901235814 | 15 | 230 | 4.8 | 11.3 | 0.00 | 0.00 | 0.00 | 82 | 1015.9 |
| 20260901235314 | 15 | 249 | 8.0 | 9.7 | 0.00 | 0.00 | 0.00 | 82 | 1015.9 |
| 20260901234814 | 15 | 251 | 8.0 | 11.3 | 0.00 | 0.00 | 0.00 | 82 | 1016.0 |
| 20260901234314 | 15 | 237 | 4.8 | 12.9 | 0.00 | 0.00 | 0.00 | 82 | 1015.9 |
| 20260901233815 | 15 | 222 | 8.0 | 14.5 | 0.00 | 0.00 | 0.00 | 82 | 1015.8 |
| 20260901233313 | 15 | 231 | 4.8 | 12.9 | 0.00 | 0.00 | 0.00 | 82 | 1015.8 |
| 20260901232814 | 15 | 219 | 9.7 | 12.9 | 0.00 | 0.00 | 0.00 | 82 | 1015.8 |
| 20260901232314 | 15 | 260 | 6.4 | 19.3 | 0.00 | 0.00 | 0.00 | 82 | 1015.8 |
| 20260901231815 | 15 | 229 | 6.4 | 11.3 | 0.00 | 0.00 | 0.00 | 82 | 1015.9 |
| 20260901231314 | 15 | 248 | 4.8 | 9.7 | 0.00 | 0.00 | 0.00 | 82 | 1015.9 |
| 20260901230855 | 15 | 243 | 4.8 | 11.3 | 0.00 | 0.00 | 0.00 | 81 | 1016.0 |
| 20260901230314 | 15 | 241 | 6.4 | 11.3 | 0.00 | 0.00 | 0.00 | 81 | 1016.0 |
| 20260901225814 | 15 | 222 | 4.8 | 11.3 | 0.00 | 0.00 | 0.00 | 81 | 1016.0 |
| 20260901225314 | 15 | 250 | 6.4 | 14.5 | 0.00 | 0.00 | 0.00 | 81 | 1016.1 |
| 20260901224815 | 15 | 234 | 4.8 | 11.3 | 0.00 | 0.00 | 0.00 | 81 | 1016.1 |
| 20260901224314 | 15 | 226 | 4.8 | 11.3 | 0.00 | 0.00 | 0.00 | 81 | 1016.1 |
| 20260901222814 | 15 | 216 | 6.4 | 11.3 | 0.00 | 0.00 | 0.00 | 80 | 1016.2 |
| 20260901222314 | 15 | 259 | 4.8 | 8.0 | 0.00 | 0.00 | 0.00 | 80 | 1016.2 |
| 20260901221814 | 15 | 261 | 3.2 | 4.8 | 0.00 | 0.00 | 0.00 | 80 | 1016.2 |
| 20260901221314 | 15 | 258 | 4.8 | 9.7 | 0.00 | 0.00 | 0.00 | 80 | 1016.2 |
| 20260901220814 | 15 | 280 | 3.2 | 11.3 | 0.00 | 0.00 | 0.00 | 79 | 1016.2 |
| 20260901215314 | 15 | 247 | 3.2 | 4.8 | 0.00 | 0.00 | 0.00 | 80 | 1016.2 |
| 20260901214314 | 16 | 216 | 4.8 | 9.7 | 0.00 | 0.00 | 0.00 | 80 | 1016.2 |
| 20260901213814 | 16 | 219 | 6.4 | 11.3 | 0.00 | 0.00 | 0.00 | 81 | 1016.2 |
| 20260901213314 | 16 | 232 | 3.2 | 11.3 | 0.00 | 0.00 | 0.00 | 81 | 1016.2 |
| 20260901212816 | 16 | 204 | 3.2 | 9.7 | 0.00 | 0.00 | 0.00 | 82 | 1016.2 |
| 20260901212314 | 16 | 207 | 4.8 | 11.3 | 0.00 | 0.00 | 0.00 | 82 | 1016.2 |
| 20260901211814 | 16 | 185 | 4.8 | 8.0 | 0.00 | 0.00 | 0.00 | 82 | 1016.2 |
| 20260901211314 | 16 | 168 | 1.6 | 4.8 | 0.00 | 0.00 | 0.00 | 83 | 1016.3 |
| 20260901210315 | 16 | 259 | 3.2 | 4.8 | 0.00 | 0.00 | 0.00 | 82 | 1016.3 |
| 20260901205815 | 16 | 269 | 1.6 | 4.8 | 0.00 | 0.00 | 0.00 | 82 | 1016.4 |
| 20260901205314 | 16 | 249 | 3.2 | 12.9 | 0.00 | 0.00 | 0.00 | 82 | 1016.3 |
| 20260901204814 | 16 | 247 | 4.8 | 11.3 | 0.00 | 0.00 | 0.00 | 83 | 1016.3 |
| 20260901204315 | 16 | 246 | 3.2 | 9.7 | 0.00 | 0.00 | 0.00 | 83 | 1016.3 |
| 20260901203813 | 16 | 213 | 4.8 | 9.7 | 0.00 | 0.00 | 0.00 | 83 | 1016.3 |
| 20260901203314 | 16 | 214 | 4.8 | 9.7 | 0.00 | 0.00 | 0.00 | 83 | 1016.3 |
| 20260901202815 | 16 | 214 | 3.2 | 8.0 | 0.00 | 0.00 | 0.00 | 83 | 1016.3 |
| 20260901202314 | 16 | 233 | 3.2 | 8.0 | 0.00 | 0.00 | 0.00 | 83 | 1016.2 |
| 20260901201815 | 16 | 240 | 3.2 | 11.3 | 0.00 | 0.00 | 0.00 | 83 | 1016.2 |
| 20260901201314 | 16 | 252 | 8.0 | 16.1 | 0.00 | 0.00 | 0.00 | 83 | 1016.2 |
| 20260901200815 | 16 | 251 | 8.0 | 11.3 | 0.00 | 0.00 | 0.00 | 83 | 1016.2 |
| 20260901200314 | 16 | 249 | 4.8 | 9.7 | 0.00 | 0.00 | 0.00 | 83 | 1016.2 |
| 20260901195814 | 16 | 232 | 8.0 | 14.5 | 0.00 | 0.00 | 0.00 | 82 | 1016.1 |
| 20260901195314 | 16 | 248 | 6.4 | 11.3 | 0.00 | 0.00 | 0.00 | 82 | 1016.0 |
| 20260901194814 | 16 | 218 | 4.8 | 12.9 | 0.00 | 0.00 | 0.00 | 82 | 1016.1 |
| 20260901194314 | 16 | 236 | 4.8 | 11.3 | 0.00 | 0.00 | 0.00 | 82 | 1016.1 |
| 20260901193814 | 16 | 253 | 8.0 | 12.9 | 0.00 | 0.00 | 0.00 | 82 | 1016.0 |
| 20260901193314 | 16 | 230 | 3.2 | 9.7 | 0.00 | 0.00 | 0.00 | 82 | 1016.0 |
| 20260901192314 | 16 | 241 | 8.0 | 12.9 | 0.00 | 0.00 | 0.00 | 82 | 1016.0 |
| 20260901191814 | 16 | 241 | 8.0 | 12.9 | 0.00 | 0.00 | 0.00 | 81 | 1015.9 |
| 20260901191314 | 16 | 249 | 6.4 | 11.3 | 0.00 | 0.00 | 0.00 | 81 | 1015.9 |
| 20260901190814 | 16 | 244 | 6.4 | 11.3 | 0.00 | 0.00 | 0.00 | 80 | 1015.9 |
| 20260901190314 | 16 | 244 | 8.0 | 12.9 | 0.00 | 0.00 | 0.00 | 80 | 1015.9 |
| 20260901185814 | 16 | 251 | 8.0 | 19.3 | 0.00 | 0.00 | 0.00 | 80 | 1015.9 |
| 20260901184814 | 16 | 239 | 8.0 | 14.5 | 0.00 | 0.00 | 0.00 | 79 | 1015.9 |
| 20260901184314 | 17 | 243 | 6.4 | 19.3 | 0.00 | 0.00 | 0.00 | 79 | 1015.9 |
| 20260901183814 | 17 | 245 | 9.7 | 14.5 | 0.00 | 0.00 | 0.00 | 78 | 1015.9 |
| 20260901181814 | 17 | 251 | 6.4 | 14.5 | 0.00 | 0.00 | 0.00 | 78 | 1016.0 |
| 20260901181314 | 17 | 253 | 6.4 | 12.9 | 0.00 | 0.00 | 0.00 | 78 | 1016.0 |
| 20260901180814 | 17 | 256 | 8.0 | 19.3 | 0.00 | 0.00 | 0.00 | 77 | 1016.0 |
| 20260901175814 | 17 | 247 | 9.7 | 16.1 | 0.00 | 0.00 | 0.00 | 77 | 1016.0 |
| 20260901174814 | 17 | 245 | 8.0 | 14.5 | 0.00 | 0.00 | 0.00 | 76 | 1015.9 |
| 20260901174314 | 17 | 254 | 6.4 | 11.3 | 0.00 | 0.00 | 0.00 | 75 | 1015.8 |
| 20260901173814 | 17 | 254 | 9.7 | 19.3 | 0.00 | 0.00 | 0.00 | 74 | 1015.8 |
| 20260901173314 | 17 | 251 | 8.0 | 19.3 | 0.00 | 0.00 | 0.00 | 74 | 1015.9 |
| 20260901172814 | 17 | 239 | 8.0 | 20.9 | 0.00 | 0.00 | 0.00 | 74 | 1015.9 |
| 20260901172314 | 17 | 253 | 8.0 | 14.5 | 0.00 | 0.00 | 0.00 | 73 | 1015.8 |
| 20260901171814 | 17 | 250 | 9.7 | 22.5 | 0.00 | 0.00 | 0.00 | 73 | 1015.9 |
| 20260901170814 | 17 | 251 | 9.7 | 19.3 | 0.00 | 0.00 | 0.00 | 73 | 1015.9 |
| 20260901170313 | 17 | 242 | 8.0 | 16.1 | 0.00 | 0.00 | 0.00 | 73 | 1015.9 |
| 20260901165814 | 17 | 242 | 11.3 | 19.3 | 0.00 | 0.00 | 0.00 | 73 | 1015.8 |
| 20260901165313 | 17 | 245 | 14.5 | 24.1 | 0.00 | 0.00 | 0.00 | 73 | 1015.8 |
| 20260901164814 | 17 | 261 | 9.7 | 20.9 | 0.00 | 0.00 | 0.00 | 73 | 1016.0 |
| 20260901163314 | 17 | 248 | 11.3 | 19.3 | 0.00 | 0.00 | 0.00 | 72 | 1015.8 |
| 20260901162814 | 17 | 245 | 12.9 | 22.5 | 0.00 | 0.00 | 0.00 | 72 | 1015.8 |
| 20260901162314 | 17 | 248 | 12.9 | 29.0 | 0.00 | 0.00 | 0.00 | 71 | 1015.9 |
| 20260901161814 | 17 | 252 | 12.9 | 19.3 | 0.00 | 0.00 | 0.00 | 71 | 1016.2 |
| 20260901161314 | 17 | 241 | 17.7 | 33.8 | 0.00 | 0.00 | 0.00 | 72 | 1016.0 |
| 20260901160814 | 17 | 242 | 14.5 | 29.0 | 0.00 | 0.00 | 0.00 | 71 | 1016.2 |
| 20260901160314 | 18 | 242 | 12.9 | 24.1 | 0.00 | 0.00 | 0.00 | 71 | 1016.1 |
| 20260901155815 | 18 | 242 | 12.9 | 20.9 | 0.00 | 0.00 | 0.00 | 71 | 1015.9 |
| 20260901155313 | 18 | 246 | 11.3 | 25.7 | 0.00 | 0.00 | 0.00 | 70 | 1015.8 |
| 20260901154814 | 18 | 247 | 12.9 | 24.1 | 0.00 | 0.00 | 0.00 | 69 | 1015.9 |
| 20260901154314 | 18 | 248 | 11.3 | 25.7 | 0.00 | 0.00 | 0.00 | 68 | 1016.0 |
| 20260901153814 | 18 | 252 | 11.3 | 22.5 | 0.00 | 0.00 | 0.00 | 70 | 1016.0 |
| 20260901153314 | 17 | 252 | 11.3 | 22.5 | 0.00 | 0.00 | 0.00 | 71 | 1016.1 |
| 20260901152814 | 17 | 253 | 12.9 | 24.1 | 0.00 | 0.00 | 0.00 | 70 | 1016.1 |
| 20260901151813 | 18 | 239 | 9.7 | 20.9 | 0.00 | 0.00 | 0.00 | 69 | 1016.1 |
| 20260901150814 | 17 | 238 | 14.5 | 27.4 | 0.00 | 0.00 | 0.00 | 70 | 1015.9 |
| 20260901150314 | 17 | 233 | 12.9 | 22.5 | 0.00 | 0.00 | 0.00 | 71 | 1015.9 |
| 20260901145813 | 17 | 247 | 8.0 | 19.3 | 0.00 | 0.00 | 0.00 | 72 | 1015.9 |
| 20260901144813 | 17 | 254 | 8.0 | 19.3 | 0.00 | 0.00 | 0.00 | 70 | 1016.0 |
| 20260901143314 | 18 | 245 | 9.7 | 19.3 | 0.00 | 0.00 | 0.00 | 69 | 1016.2 |
| 20260901142813 | 18 | 247 | 9.7 | 22.5 | 0.00 | 0.00 | 0.00 | 70 | 1016.2 |
| 20260901141813 | 18 | 243 | 9.7 | 22.5 | 0.00 | 0.00 | 0.00 | 71 | 1016.3 |
| 20260901141314 | 18 | 238 | 9.7 | 20.9 | 0.00 | 0.00 | 0.00 | 70 | 1016.2 |
| 20260901140814 | 18 | 247 | 9.7 | 19.3 | 0.00 | 0.00 | 0.00 | 70 | 1016.2 |
| 20260901140314 | 18 | 249 | 11.3 | 19.3 | 0.00 | 0.00 | 0.00 | 70 | 1016.1 |
| 20260901135813 | 18 | 259 | 11.3 | 24.1 | 0.00 | 0.00 | 0.00 | 70 | 1016.2 |
| 20260901135314 | 18 | 243 | 9.7 | 24.1 | 0.00 | 0.00 | 0.00 | 69 | 1016.0 |
| 20260901134814 | 18 | 248 | 12.9 | 22.5 | 0.00 | 0.00 | 0.00 | 67 | 1016.0 |
| 20260901134314 | 18 | 239 | 11.3 | 20.9 | 0.00 | 0.00 | 0.00 | 67 | 1016.1 |
| 20260901132314 | 18 | 229 | 9.7 | 19.3 | 0.00 | 0.00 | 0.00 | 67 | 1016.1 |
| 20260901131814 | 18 | 231 | 9.7 | 35.4 | 0.00 | 0.00 | 0.00 | 67 | 1016.2 |
| 20260901131314 | 18 | 229 | 14.5 | 32.2 | 0.00 | 0.00 | 0.00 | 65 | 1016.2 |
| 20260901130813 | 18 | 215 | 9.7 | 27.4 | 0.00 | 0.00 | 0.00 | 68 | 1016.2 |
| 20260901130314 | 18 | 257 | 11.3 | 19.3 | 0.00 | 0.00 | 0.00 | 68 | 1016.2 |
| 20260901125313 | 18 | 242 | 11.3 | 19.3 | 0.00 | 0.00 | 0.00 | 68 | 1016.2 |
| 20260901124813 | 18 | 218 | 9.7 | 19.3 | 0.00 | 0.00 | 0.00 | 68 | 1016.2 |
| 20260901124314 | 18 | 226 | 9.7 | 29.0 | 0.00 | 0.00 | 0.00 | 69 | 1016.2 |
| 20260901123814 | 18 | 220 | 11.3 | 29.0 | 0.00 | 0.00 | 0.00 | 68 | 1016.3 |
| 20260901123313 | 18 | 222 | 11.3 | 25.7 | 0.00 | 0.00 | 0.00 | 68 | 1016.3 |
| 20260901122814 | 18 | 217 | 8.0 | 19.3 | 0.00 | 0.00 | 0.00 | 69 | 1016.3 |
| 20260901122314 | 17 | 235 | 8.0 | 20.9 | 0.00 | 0.00 | 0.00 | 70 | 1016.3 |
| 20260901121814 | 17 | 258 | 9.7 | 19.3 | 0.00 | 0.00 | 0.00 | 70 | 1016.4 |
| 20260901121314 | 17 | 235 | 9.7 | 19.3 | 0.00 | 0.00 | 0.00 | 70 | 1016.4 |
| 20260901120814 | 17 | 234 | 6.4 | 14.5 | 0.00 | 0.00 | 0.00 | 70 | 1016.3 |
| 20260901120313 | 17 | 229 | 8.0 | 19.3 | 0.00 | 0.00 | 0.00 | 71 | 1016.4 |
| 20260901115814 | 17 | 233 | 9.7 | 19.3 | 0.00 | 0.00 | 0.00 | 71 | 1016.5 |
| 20260901114313 | 17 | 247 | 11.3 | 19.3 | 0.00 | 0.00 | 0.00 | 71 | 1016.4 |
| 20260901113814 | 17 | 254 | 8.0 | 16.1 | 0.00 | 0.00 | 0.00 | 71 | 1016.4 |
| 20260901113313 | 17 | 232 | 9.7 | 16.1 | 0.00 | 0.00 | 0.00 | 71 | 1016.5 |
| 20260901112814 | 17 | 222 | 11.3 | 22.5 | 0.00 | 0.00 | 0.00 | 70 | 1016.4 |
| 20260901112313 | 17 | 218 | 11.3 | 20.9 | 0.00 | 0.00 | 0.00 | 70 | 1016.4 |
| 20260901111313 | 17 | 220 | 11.3 | 20.9 | 0.00 | 0.00 | 0.00 | 68 | 1016.3 |
| 20260901110814 | 17 | 239 | 9.7 | 19.3 | 0.00 | 0.00 | 0.00 | 69 | 1016.3 |
| 20260901110314 | 17 | 225 | 9.7 | 19.3 | 0.00 | 0.00 | 0.00 | 70 | 1016.3 |
| 20260901105814 | 17 | 249 | 11.3 | 20.9 | 0.00 | 0.00 | 0.00 | 69 | 1016.4 |
| 20260901105314 | 17 | 242 | 11.3 | 24.1 | 0.00 | 0.00 | 0.00 | 69 | 1016.3 |
| 20260901104813 | 17 | 236 | 11.3 | 20.9 | 0.00 | 0.00 | 0.00 | 69 | 1016.4 |
| 20260901104313 | 17 | 223 | 9.7 | 19.3 | 0.00 | 0.00 | 0.00 | 70 | 1016.4 |
| 20260901103814 | 17 | 252 | 11.3 | 20.9 | 0.00 | 0.00 | 0.00 | 71 | 1016.3 |
| 20260901103314 | 17 | 238 | 9.7 | 19.3 | 0.00 | 0.00 | 0.00 | 70 | 1016.4 |
| 20260901102814 | 17 | 229 | 11.3 | 22.5 | 0.00 | 0.00 | 0.00 | 69 | 1016.5 |
| 20260901102314 | 17 | 242 | 8.0 | 19.3 | 0.00 | 0.00 | 0.00 | 69 | 1016.6 |
| 20260901101813 | 17 | 232 | 9.7 | 24.1 | 0.00 | 0.00 | 0.00 | 69 | 1016.6 |
| 20260901101313 | 16 | 249 | 11.3 | 24.1 | 0.00 | 0.00 | 0.00 | 69 | 1016.5 |
| 20260901100814 | 16 | 250 | 11.3 | 20.9 | 0.00 | 0.00 | 0.00 | 69 | 1016.6 |
| 20260901100313 | 17 | 229 | 11.3 | 27.4 | 0.00 | 0.00 | 0.00 | 68 | 1016.6 |
| 20260901094814 | 17 | 221 | 9.7 | 22.5 | 0.00 | 0.00 | 0.00 | 68 | 1016.4 |
| 20260901094313 | 17 | 212 | 12.9 | 27.4 | 0.00 | 0.00 | 0.00 | 68 | 1016.4 |
| 20260901093814 | 17 | 225 | 9.7 | 19.3 | 0.00 | 0.00 | 0.00 | 70 | 1016.4 |
| 20260901093314 | 16 | 224 | 14.5 | 29.0 | 0.00 | 0.00 | 0.00 | 69 | 1016.4 |
| 20260901092814 | 16 | 225 | 12.9 | 24.1 | 0.00 | 0.00 | 0.00 | 68 | 1016.4 |
| 20260901092313 | 16 | 231 | 11.3 | 32.2 | 0.00 | 0.00 | 0.00 | 70 | 1016.4 |
| 20260901091814 | 16 | 236 | 12.9 | 19.3 | 0.00 | 0.00 | 0.00 | 69 | 1016.5 |
| 20260901091314 | 16 | 234 | 11.3 | 24.1 | 0.00 | 0.00 | 0.00 | 72 | 1016.4 |
| 20260901090314 | 16 | 226 | 9.7 | 16.1 | 0.00 | 0.00 | 0.00 | 74 | 1016.5 |
| 20260901085814 | 16 | 233 | 6.4 | 14.5 | 0.00 | 0.00 | 0.00 | 75 | 1016.5 |
| 20260901085313 | 16 | 218 | 9.7 | 19.3 | 0.00 | 0.00 | 0.00 | 75 | 1016.5 |
| 20260901084815 | 15 | 243 | 8.0 | 16.1 | 0.00 | 0.00 | 0.00 | 78 | 1016.4 |
| 20260901084314 | 15 | 235 | 9.7 | 19.3 | 0.00 | 0.00 | 0.00 | 79 | 1016.3 |
| 20260901083813 | 15 | 243 | 8.0 | 19.3 | 0.00 | 0.00 | 0.00 | 80 | 1016.3 |
| 20260901082813 | 15 | 212 | 8.0 | 12.9 | 0.00 | 0.00 | 0.00 | 81 | 1016.4 |
| 20260901082313 | 15 | 217 | 9.7 | 19.3 | 0.00 | 0.00 | 0.00 | 81 | 1016.5 |
| 20260901081814 | 15 | 241 | 11.3 | 22.5 | 0.00 | 0.00 | 0.00 | 80 | 1016.4 |
| 20260901081313 | 15 | 223 | 9.7 | 20.9 | 0.00 | 0.00 | 0.00 | 80 | 1016.4 |
| 20260901075815 | 15 | 233 | 8.0 | 14.5 | 0.00 | 0.00 | 0.00 | 82 | 1016.3 |
| 20260901075313 | 15 | 235 | 8.0 | 20.9 | 0.00 | 0.00 | 0.00 | 83 | 1016.2 |
| 20260901074813 | 15 | 248 | 8.0 | 14.5 | 0.00 | 0.00 | 0.00 | 84 | 1016.2 |
| 20260901074313 | 14 | 213 | 8.0 | 19.3 | 0.00 | 0.00 | 0.00 | 85 | 1016.2 |
| 20260901073814 | 14 | 253 | 9.7 | 19.3 | 0.00 | 0.00 | 0.00 | 85 | 1016.1 |
| 20260901072813 | 13 | 246 | 4.8 | 12.9 | 0.00 | 0.00 | 0.00 | 87 | 1016.1 |
| 20260901072313 | 13 | 240 | 4.8 | 19.3 | 0.00 | 0.00 | 0.00 | 88 | 1016.2 |
| 20260901071813 | 13 | 265 | 4.8 | 9.7 | 0.00 | 0.00 | 0.00 | 88 | 1016.2 |
| 20260901070815 | 13 | 237 | 3.2 | 8.0 | 0.00 | 0.00 | 0.00 | 89 | 1016.3 |
| 20260901065813 | 12 | 248 | 1.6 | 8.0 | 0.00 | 0.00 | 0.00 | 90 | 1016.2 |
| 20260901065313 | 12 | 243 | 4.8 | 11.3 | 0.00 | 0.00 | 0.00 | 90 | 1016.2 |
| 20260901064814 | 12 | 278 | 3.2 | 11.3 | 0.00 | 0.00 | 0.00 | 90 | 1016.2 |
| 20260901063814 | 12 | 246 | 3.2 | 8.0 | 0.00 | 0.00 | 0.00 | 90 | 1016.2 |
| 20260901063313 | 12 | 233 | 3.2 | 9.7 | 0.00 | 0.00 | 0.00 | 90 | 1016.2 |
| 20260901062813 | 12 | 248 | 9.7 | 12.9 | 0.00 | 0.00 | 0.00 | 91 | 1016.2 |
| 20260901062313 | 12 | 250 | 6.4 | 12.9 | 0.00 | 0.00 | 0.00 | 91 | 1016.2 |
| 20260901061813 | 12 | 244 | 8.0 | 12.9 | 0.00 | 0.00 | 0.00 | 92 | 1016.2 |
| 20260901061313 | 12 | 245 | 3.2 | 9.7 | 0.00 | 0.00 | 0.00 | 92 | 1016.2 |
| 20260901060813 | 12 | 246 | 4.8 | 9.7 | 0.00 | 0.00 | 0.00 | 92 | 1016.1 |
| 20260901055813 | 11 | 241 | 1.6 | 4.8 | 0.00 | 0.00 | 0.00 | 92 | 1016.1 |
| 20260901055313 | 11 | 250 | 4.8 | 9.7 | 0.00 | 0.00 | 0.00 | 92 | 1016.1 |
| 20260901054814 | 11 | 256 | 1.6 | 4.8 | 0.00 | 0.00 | 0.00 | 92 | 1016.1 |
| 20260901054313 | 11 | 253 | 1.6 | 4.8 | 0.00 | 0.00 | 0.00 | 92 | 1016.1 |
| 20260901053313 | 11 | 279 | 3.2 | 4.8 | 0.00 | 0.00 | 0.00 | 93 | 1016.0 |
| 20260901052313 | 11 | 348 | 1.6 | 3.2 | 0.00 | 0.00 | 0.00 | 92 | 1016.0 |
| 20260901051814 | 11 | 348 | 1.6 | 3.2 | 0.00 | 0.00 | 0.00 | 92 | 1016.0 |
| 20260901051313 | 11 | 291 | 1.6 | 4.8 | 0.00 | 0.00 | 0.00 | 91 | 1016.0 |
| 20260901050813 | 11 | 291 | 1.6 | 1.6 | 0.00 | 0.00 | 0.00 | 91 | 1016.0 |
| 20260901045813 | 11 | 291 | 1.6 | 1.6 | 0.00 | 0.00 | 0.00 | 91 | 1016.0 |
| 20260901045313 | 11 | 291 | 1.6 | 3.2 | 0.00 | 0.00 | 0.00 | 91 | 1016.0 |
| 20260901044313 | 11 | 291 | 0.0 | 3.2 | 0.00 | 0.00 | 0.00 | 91 | 1016.0 |
| 20260901043313 | 11 | 291 | 1.6 | 3.2 | 0.00 | 0.00 | 0.00 | 91 | 1016.0 |
| 20260901042813 | 11 | 291 | 1.6 | 4.8 | 0.00 | 0.00 | 0.00 | 90 | 1016.0 |
| 20260901042312 | 11 | 291 | 1.6 | 4.8 | 0.00 | 0.00 | 0.00 | 90 | 1015.9 |
| 20260901041813 | 11 | 291 | 1.6 | 3.2 | 0.00 | 0.00 | 0.00 | 90 | 1015.9 |
| 20260901041312 | 11 | 291 | 1.6 | 3.2 | 0.00 | 0.00 | 0.00 | 90 | 1016.0 |
| 20260901040813 | 11 | 291 | 1.6 | 3.2 | 0.00 | 0.00 | 0.00 | 89 | 1015.9 |
| 20260901040313 | 11 | 291 | 3.2 | 4.8 | 0.00 | 0.00 | 0.00 | 89 | 1015.8 |
| 20260901035815 | 11 | 291 | 1.6 | 3.2 | 0.00 | 0.00 | 0.00 | 89 | 1015.9 |
| 20260901035313 | 12 | 291 | 1.6 | 3.2 | 0.00 | 0.00 | 0.00 | 89 | 1015.8 |
| 20260901034813 | 12 | 291 | 0.0 | 3.2 | 0.00 | 0.00 | 0.00 | 89 | 1015.9 |
| 20260901034313 | 12 | 291 | 1.6 | 3.2 | 0.00 | 0.00 | 0.00 | 89 | 1015.8 |
| 20260901033313 | 12 | 291 | 3.2 | 4.8 | 0.00 | 0.00 | 0.00 | 89 | 1015.9 |
| 20260901032813 | 12 | 259 | 3.2 | 4.8 | 0.00 | 0.00 | 0.00 | 90 | 1016.0 |
| 20260901032312 | 11 | 259 | 3.2 | 8.0 | 0.00 | 0.00 | 0.00 | 90 | 1016.0 |